CAPE
0 0 0 0 0 0 0 0 0 0 0 0 0 0 0 0 0 0 0 122 1091 2714 2942 2273 1899 433 505 602 266 107 390 269 105 135 155 253 102 137 305 193 315 261 347 202 62
0 0 0 0 0 0 0 0 0 0 0 0 0 0 0 0 0 0 277 2660 2183 2906 2028 769 618 573 684 465 146 90 303 185 48 94 167 172 226 95 149 162 317 324 269 273 144
0 0 0 0 0 0 0 0 0 0 0 0 0 0 0 0 0 0 1447 3054 2647 2706 1247 563 87 306 248 18 67 83 9 214 27 31 119 121 179 267 118 125 166 266 270 226 332
0 0 0 0 0 0 0 0 0 0 0 0 0 0 0 0 0 0 747 2767 2887 1008 904 1095 34 84 205 144 28 17 28 9 0 0 100 170 414 434 337 239 200 180 274 149 74
0 0 0 0 0 0 0 0 0 0 0 0 0 0 0 0 0 8 1038 2018 1112 800 893 626 235 0 107 187 54 31 28 10 20 3 6 121 443 381 303 254 275 221 192 231 219
0 0 0 0 0 0 0 0 0 0 0 0 0 0 0 0 0 0 0 31 208 330 777 285 133 77 191 115 139 15 68 17 73 3 14 30 115 276 448 271 203 199 341 260 304
0 0 0 0 0 0 0 0 0 0 0 0 1 0 0 0 0 28 0 0 75 180 171 55 52 41 218 410 291 168 134 205 87 152 10 17 134 54 395 259 258 483 372 591 482
0 0 0 0 0 0 0 0 0 0 0 0 0 0 0 0 0 0 0 0 7 31 14 0 0 103 33 274 310 135 156 399 298 205 7 10 257 55 148 334 597 424 566 676 821
0 0 0 0 0 0 0 0 0 0 0 0 0 0 0 0 0 0 0 0 15 4 0 0 0 48 277 365 155 56 107 112 208 164 282 380 87 0 123 159 583 662 767 579 969
0 0 0 0 0 0 0 0 0 0 0 0 0 0 0 0 0 0 0 0 3 0 0 0 0 89 168 196 49 24 9 146 248 225 204 49 1 15 133 209 521 362 689 595 644
0 0 0 0 0 0 0 0 0 0 0 0 0 0 0 0 0 0 0 0 0 20 0 0 1 101 242 19 0 26 67 131 280 122 187 101 15 73 94 93 335 263 306 323 45
0 0 0 0 0 0 0 0 0 0 0 0 0 0 0 0 0 0 0 0 3 34 0 5 9 82 288 61 30 10 72 127 251 171 110 103 71 85 258 364 268 387 445 491 448
0 0 0 0 0 0 0 0 0 0 0 0 0 0 0 0 0 0 0 0 1 0 0 4 40 95 173 126 235 177 321 442 368 245 325 144 200 167 205 486 539 526 462 341 351
0 0 0 0 0 0 0 0 0 0 0 0 0 0 0 0 0 0 0 0 0 0 0 2 35 140 33 27 99 236 323 305 482 545 496 116 152 244 176 239 271 402 280 413 428
0 0 0 0 0 0 0 0 0 0 0 0 0 0 0 0 0 0 0 0 0 0 0 19 114 35 17 44 74 198 107 204 361 313 324 149 532 133 191 198 157 216 356 384 611
0 0 0 0 0 0 0 0 0 0 0 0 0 0 0 0 0 0 0 0 0 0 0 18 22 57 2 18 137 8 10 175 394 325 27 140 396 259 134 184 134 343 351 414 665
0 0 0 0 0 0 0 0 0 0 0 0 0 0 0 0 0 0 0 0 0 0 0 0 17 32 41 49 202 197 248 332 403 476 37 18 126 236 74 180 161 483 477 468 671
0 0 0 0 0 0 0 0 0 0 0 0 0 0 0 0 0 0 0 0 0 0 0 11 27 47 0 26 107 240 64 45 16 1 3 113 67 164 142 186 175 122 258 563 573
0 0 0 0 0 0 0 0 0 0 0 0 0 0 0 0 0 0 0 0 0 0 0 19 61 45 29 34 185 102 37 30 106 0 16 16 202 72 118 181 274 128 250 292 295
0 0 0 0 0 0 0 0 0 0 0 0 0 0 0 0 0 0 0 0 0 0 0 1 103 59 39 53 63 223 27 0 9 90 0 315 213 96 256 186 168 263 161 178 233
0 0 0 0 0 0 0 0 0 0 0 0 0 0 0 0 0 0 0 0 0 0 0 0 10 97 144 111 108 228 341 187 20 75 92 171 209 202 326 219 368 107 145 255 257
0 0 0 0 0 0 0 0 0 0 0 0 0 0 0 0 0 0 0 0 0 0 0 0 0 77 75 182 65 54 63 84 143 125 2 63 233 58 89 80 177 25 248 268 331
0 0 0 0 0 0 0 0 0 0 0 0 0 0 0 0 0 0 0 0 0 0 0 0 3 5 8 68 83 51 128 58 78 28 87 139 199 8 61 219 225 145 390 513 432
0 0 0 0 0 0 0 0 0 0 0 0 0 0 0 0 0 0 0 0 0 0 0 0 0 0 10 97 257 117 108 163 38 67 58 10 70 114 141 186 298 343 340 447 563
0 0 0 0 0 0 0 0 0 0 0 0 0 0 0 0 0 0 0 0 0 0 0 0 0 0 20 24 134 287 209 53 156 47 25 71 25 44 312 294 356 322 411 499 751
0 0 0 0 0 0 0 0 0 0 0 0 0 0 0 0 0 0 0 0 0 0 0 0 0 0 0 0 101 70 112 117 261 138 2 12 108 13 131 515 407 354 431 537 666
0 0 0 0 0 0 0 0 0 0 0 0 0 0 0 0 0 0 0 0 0 0 0 0 0 0 0 6 24 4 26 112 234 98 49 25 53 44 201 390 255 233 392 661 782
CIN
-0 -0 -0 -0 -0 -0 -0 -0 -0 -0 -0 -0 -0 -0 -0 -0 -0 -0 -0 -113 -208 -417 -311 -75 -47 -41 -56 -15 -7 -21 -9 -22 -8 -6 -17 -9 -24 -45 -10 -50 -15 -12 -8 -32 -93
-0 -0 -0 -0 -0 -0 -0 -0 -0 -0 -0 -0 -0 -0 -0 -0 -0 -0 -323 -411 -460 -407 -114 -28 -31 -27 -10 -9 -19 -34 -23 -32 -28 -25 -22 -15 -13 -46 -36 -56 -12 -18 -30 -21 -54
-0 -0 -0 -0 -0 -0 -0 -0 -0 -0 -0 -0 -0 -0 -0 -0 -0 -0 -554 -432 -416 -379 -47 -2 -17 -19 -43 -9 -33 -22 -0 -7 -33 -42 -28 -42 -31 -12 -37 -66 -63 -42 -35 -40 -14
-0 -0 -0 -0 -0 -0 -0 -0 -0 -0 -0 -0 -0 -0 -0 -0 -0 -0 -603 -467 -415 -203 -87 -14 -126 -137 -172 -79 -1 -0 -5 -27 -0 -0 -37 -20 -29 -7 -14 -33 -48 -54 -38 -65 -109
-0 -0 -0 -0 -0 -0 -0 -0 -0 -0 -0 -0 -0 -0 -0 -0 -0 -62 -596 -491 -290 -209 -53 -5 -69 -4 -166 -13 -29 -1 -2 -0 -1 -1 -5 -17 -2 -13 -22 -24 -28 -40 -42 -10 -12
-0 -0 -0 -0 -0 -0 -0 -0 -0 -0 -0 -0 -0 -0 -0 -0 -0 -0 -0 -63 -130 -121 -46 -2 -72 -41 -12 -24 -41 -46 -29 -0 -12 -1 -1 -6 -8 -5 -9 -9 -33 -20 -13 -3 -6
-0 -0 -0 -0 -0 -0 -0 -0 -0 -0 -0 -0 -0 -0 -0 -0 -0 -149 -0 -0 -147 -61 -21 -30 -25 -50 -134 -12 -6 -5 -4 -1 -4 -0 -2 -1 -16 -37 -1 -11 -3 -7 -92 -5 -2
-0 -0 -0 -0 -0 -0 -0 -0 -0 -0 -0 -0 -0 -0 -0 -0 -0 -0 -0 -0 -71 -98 -75 -0 -0 -101 -37 -24 -17 -39 -180 -10 -0 -2 -5 -14 -1 -64 -22 -5 -18 -20 -14 -20 -2
-0 -0 -0 -0 -0 -0 -0 -0 -0 -0 -0 -0 -0 -0 -0 -0 -0 -0 -0 -0 -133 -70 -0 -0 -0 -40 -17 -33 -89 -135 -102 -28 -0 -1 -4 -2 -37 -0 -39 -30 -2 -3 -13 -28 -25
-0 -0 -0 -0 -0 -0 -0 -0 -0 -0 -0 -0 -0 -0 -0 -0 -0 -0 -0 -0 -63 -0 -0 -0 -0 -12 -3 -74 -13 -73 -55 -60 -3 -1 -3 -32 -59 -56 -20 -9 -3 -2 -5 -15 -9
-0 -0 -0 -0 -0 -0 -0 -0 -0 -0 -0 -0 -0 -0 -0 -0 -0 -0 -0 -0 -0 -103 -0 -0 -0 -5 -146 -355 -0 -17 -1 -10 -0 -10 -2 -6 -27 -30 -24 -20 -16 -33 -21 -41 -164
-0 -0 -0 -0 -0 -0 -0 -0 -0 -0 -0 -0 -0 -0 -0 -0 -0 -0 -0 -0 -79 -86 -0 -1 -4 -3 -38 -140 -16 -13 -52 -29 -3 -2 -0 -5 -9 -25 -11 -6 -3 -33 -9 -29 -18
-0 -0 -0 -0 -0 -0 -0 -0 -0 -0 -0 -0 -0 -0 -0 -0 -0 -0 -0 -0 -90 -0 -0 -1 -6 -3 -9 -133 -106 -91 -86 -0 -3 -3 -2 -3 -0 -2 -4 -2 -3 -8 -8 -46 -41
-0 -0 -0 -0 -0 -0 -0 -0 -0 -0 -0 -0 -0 -0 -0 -0 -0 -0 -0 -0 -0 -0 -0 -0 -9 -1 -1 -1 -7 -37 -13 -9 -0 -19 -2 -3 -2 -1 -1 -3 -2 -0 -8 -29 -38
-0 -0 -0 -0 -0 -0 -0 -0 -0 -0 -0 -0 -0 -0 -0 -0 -0 -0 -0 -0 -0 -0 -0 -30 -3 -9 -1 -3 -24 -172 -134 -25 -35 -12 -21 -62 -86 -8 -1 -6 -8 -4 -20 -42 -9
-0 -0 -0 -0 -0 -0 -0 -0 -0 -0 -0 -0 -0 -0 -0 -0 -0 -0 -0 -0 -0 -0 -0 -48 -31 -3 -0 -21 -35 -116 -14 -19 -4 -8 -9 -66 -66 -10 -22 -13 -28 -5 -21 -2 -19
-0 -0 -0 -0 -0 -0 -0 -0 -0 -0 -0 -0 -0 -0 -0 -0 -0 -0 -0 -0 -0 -0 -0 -1 -41 -1 -33 -11 -13 -25 -24 -17 -0 -96 -165 -227 -88 -58 -21 -16 -15 -3 -2 -28 -3
-0 -0 -0 -0 -0 -0 -0 -0 -0 -0 -0 -0 -0 -0 -0 -0 -0 -0 -0 -0 -0 -0 -0 -0 -40 -35 -0 -21 -4 -120 -195 -15 -0 -3 -21 -53 -166 -49 -22 -7 -9 -43 -14 -2 -3
-0 -0 -0 -0 -0 -0 -0 -0 -0 -0 -0 -0 -0 -0 -0 -0 -0 -0 -0 -0 -0 -0 -0 -0 -12 -3 -10 -7 -13 -106 -104 -301 -132 -0 -38 -8 -59 -28 -34 -5 -3 -31 -13 -3 -1
-0 -0 -0 -0 -0 -0 -0 -0 -0 -0 -0 -0 -0 -0 -0 -0 -0 -0 -0 -0 -0 -0 -0 -7 -2 -9 -2 -9 -7 -36 -18 -0 -10 -7 -0 -3 -1 -52 -26 -37 -35 -12 -29 -20 -6
-0 -0 -0 -0 -0 -0 -0 -0 -0 -0 -0 -0 -0 -0 -0 -0 -0 -0 -0 -0 -0 -0 -0 -0 -23 -10 -2 -0 -1 -60 -38 -19 -87 -26 -151 -120 -2 -60 -51 -70 -8 -88 -53 -15 -13
-0 -0 -0 -0 -0 -0 -0 -0 -0 -0 -0 -0 -0 -0 -0 -0 -0 -0 -0 -0 -0 -0 -0 -0 -2 -16 -22 -1 -11 -9 -0 -1 -11 -60 -135 -321 -9 -38 -93 -135 -78 -174 -38 -35 -21
-0 -0 -0 -0 -0 -0 -0 -0 -0 -0 -0 -0 -0 -0 -0 -0 -0 -0 -0 -0 -0 -0 -0 -0 -36 -24 -21 -47 -4 -12 -2 -5 -46 -70 -46 -194 -4 -104 -99 -91 -94 -94 -25 -22 -25
-0 -0 -0 -0 -0 -0 -0 -0 -0 -0 -0 -0 -0 -0 -0 -0 -0 -0 -0 -0 -0 -0 -0 -0 -0 -0 -66 -81 -4 -5 -6 -6 -9 -425 -31 -103 -30 -62 -76 -104 -93 -51 -65 -39 -22
-0 -0 -0 -0 -0 -0 -0 -0 -0 -0 -0 -0 -0 -0 -0 -0 -0 -0 -0 -0 -0 -0 -0 -0 -0 -0 -18 -18 -26 -21 -9 -5 -131 -251 -276 -40 -21 -67 -56 -81 -87 -121 -94 -63 -22
-0 -0 -0 -0 -0 -0 -0 -0 -0 -0 -0 -0 -0 -0 -0 -0 -0 -0 -0 -0 -0 -0 -0 -0 -0 -0 -0 -0 -89 -23 -123 -19 -17 -70 -43 -167 -59 -79 -42 -10 -99 -114 -119 -92 -55
-0 -0 -0 -0 -0 -0 -0 -0 -0 -0 -0 -0 -0 -0 -0 -0 -0 -0 -0 -0 -0 -0 -0 -0 -0 -0 -0 -1 -63 -221 -150 -58 -4 -51 -8 -88 -145 -16 -21 -41 -111 -141 -139 -93 -56
Wind_Speed
nan nan nan nan nan nan nan nan nan nan nan nan nan nan nan nan nan nan nan 7 12 28 23 26 33 27 33 39 29 13 1 2 8 14 8 9 8 9 9 7 19 12 15 12 nan
nan nan nan nan nan nan nan nan nan nan nan nan nan nan nan nan nan nan 8 11 22 23 21 23 31 24 29 36 16 nan 11 16 nan nan 7 5 11 nan 11 11 13 13 12 10 12
nan nan nan nan nan nan nan nan nan nan nan nan nan nan nan nan nan nan 9 10 19 23 28 22 nan 41 20 nan nan nan nan 15 nan nan 13 9 14 13 11 14 12 13 13 11 9
nan nan nan nan nan nan nan nan nan nan nan nan nan nan nan nan nan nan 9 8 13 20 22 22 nan nan 19 24 nan nan nan nan nan nan 12 13 18 12 11 10 12 11 11 10 nan
nan nan nan nan nan nan nan nan nan nan nan nan nan nan nan nan nan nan 10 6 11 16 24 21 22 nan 21 8 nan nan nan nan nan nan nan 11 22 20 15 14 12 11 8 8 10
nan nan nan nan nan nan nan nan nan nan nan nan nan nan nan nan nan nan nan nan 10 13 26 28 43 nan 13 19 24 nan nan nan nan nan nan nan 19 22 20 14 14 12 19 13 15
nan nan nan nan nan nan nan nan nan nan nan nan nan nan nan nan nan nan nan nan nan 14 22 nan nan nan 30 11 13 20 10 9 nan 11 nan nan 19 nan 23 20 17 14 9 19 15
nan nan nan nan nan nan nan nan nan nan nan nan nan nan nan nan nan nan nan nan nan nan nan nan nan 26 nan 21 16 40 17 9 11 10 nan nan 17 nan 19 21 18 21 18 20 19
nan nan nan nan nan nan nan nan nan nan nan nan nan nan nan nan nan nan nan nan nan nan nan nan nan nan 17 9 31 nan 9 26 17 15 17 16 nan nan 18 15 14 14 19 17 17
nan nan nan nan nan nan nan nan nan nan nan nan nan nan nan nan nan nan nan nan nan nan nan nan nan nan 23 35 nan nan nan 27 14 17 19 nan nan nan 15 16 19 17 17 7 16
nan nan nan nan nan nan nan nan nan nan nan nan nan nan nan nan nan nan nan nan nan nan nan nan nan 13 30 nan nan nan nan 37 20 19 13 15 nan nan nan nan 8 8 17 22 nan
nan nan nan nan nan nan nan nan nan nan nan nan nan nan nan nan nan nan nan nan nan nan nan nan nan nan 30 nan nan nan nan 39 25 20 18 17 nan nan 12 13 11 14 15 15 20
nan nan nan nan nan nan nan nan nan nan nan nan nan nan nan nan nan nan nan nan nan nan nan nan nan nan 14 31 27 30 29 12 23 13 8 14 20 21 19 19 22 22 26 17 3
nan nan nan nan nan nan nan nan nan nan nan nan nan nan nan nan nan nan nan nan nan nan nan nan nan 12 nan nan nan 23 33 9 20 19 4 14 11 19 19 14 19 24 18 22 20
nan nan nan nan nan nan nan nan nan nan nan nan nan nan nan nan nan nan nan nan nan nan nan nan 15 nan nan nan nan 23 26 18 12 13 10 18 17 18 18 16 12 9 6 19 27
nan nan nan nan nan nan nan nan nan nan nan nan nan nan nan nan nan nan nan nan nan nan nan nan nan nan nan nan 28 nan nan 18 14 24 nan 24 7 16 17 17 20 19 18 7 24
nan nan nan nan nan nan nan nan nan nan nan nan nan nan nan nan nan nan nan nan nan nan nan nan nan nan nan nan 20 3 8 7 7 20 nan nan 11 14 nan 23 19 13 8 16 14
nan nan nan nan nan nan nan nan nan nan nan nan nan nan nan nan nan nan nan nan nan nan nan nan nan nan nan nan 9 23 nan nan nan nan nan 5 nan 22 23 21 17 11 11 13 17
nan nan nan nan nan nan nan nan nan nan nan nan nan nan nan nan nan nan nan nan nan nan nan nan nan nan nan nan 5 28 nan nan 8 nan nan nan 37 nan 19 12 22 16 10 13 7
nan nan nan nan nan nan nan nan nan nan nan nan nan nan nan nan nan nan nan nan nan nan nan nan 7 nan nan nan nan 42 nan nan nan nan nan 9 15 nan 18 18 20 17 15 8 11
nan nan nan nan nan nan nan nan nan nan nan nan nan nan nan nan nan nan nan nan nan nan nan nan nan nan 17 7 4 23 8 11 nan nan nan 19 10 18 19 17 19 17 15 13 12
nan nan nan nan nan nan nan nan nan nan nan nan nan nan nan nan nan nan nan nan nan nan nan nan nan nan nan 3 nan nan nan nan 6 11 nan nan 14 nan nan nan 18 nan 15 12 11
nan nan nan nan nan nan nan nan nan nan nan nan nan nan nan nan nan nan nan nan nan nan nan nan nan nan nan nan nan nan 11 nan nan nan nan 16 11 nan nan 17 14 17 18 12 12
nan nan nan nan nan nan nan nan nan nan nan nan nan nan nan nan nan nan nan nan nan nan nan nan nan nan nan nan 16 10 2 14 nan nan nan nan nan 16 12 16 17 21 17 15 11
nan nan nan nan nan nan nan nan nan nan nan nan nan nan nan nan nan nan nan nan nan nan nan nan nan nan nan nan 20 32 23 nan 31 nan nan nan nan nan 18 14 21 22 20 16 16
nan nan nan nan nan nan nan nan nan nan nan nan nan nan nan nan nan nan nan nan nan nan nan nan nan nan nan nan 49 nan 38 43 17 33 nan nan 30 nan 16 15 21 18 19 18 15
nan nan nan nan nan nan nan nan nan nan nan nan nan nan nan nan nan nan nan nan nan nan nan nan nan nan nan nan nan nan nan 31 17 nan nan nan nan nan 15 18 15 16 16 18 14
Wind_Direction
nan nan nan nan nan nan nan nan nan nan nan nan nan nan nan nan nan nan nan 340 21 10 46 31 52 60 71 73 80 201 139 141 262 294 4 307 303 316 356 269 228 283 272 306 nan
nan nan nan nan nan nan nan nan nan nan nan nan nan nan nan nan nan nan 344 334 342 8 36 42 57 66 68 61 44 nan 95 327 nan nan 329 315 291 nan 285 278 268 269 292 345 6
nan nan nan nan nan nan nan nan nan nan nan nan nan nan nan nan nan nan 345 343 357 19 44 46 nan 149 118 nan nan nan nan 286 nan nan 295 321 295 268 311 314 309 318 324 360 1
nan nan nan nan nan nan nan nan nan nan nan nan nan nan nan nan nan nan 342 5 7 38 56 68 nan nan 89 88 nan nan nan nan nan nan 333 316 304 299 289 299 315 318 341 360 nan
nan nan nan nan nan nan nan nan nan nan nan nan nan nan nan nan nan nan 311 335 7 41 68 70 317 nan 80 168 nan nan nan nan nan nan nan 299 296 317 297 305 313 330 293 314 303
nan nan nan nan nan nan nan nan nan nan nan nan nan nan nan nan nan nan nan nan 2 37 74 97 320 nan 44 270 102 nan nan nan nan nan nan nan 287 283 290 307 295 324 330 333 316
nan nan nan nan nan nan nan nan nan nan nan nan nan nan nan nan nan nan nan nan nan 38 88 nan nan nan 178 352 22 273 328 46 nan 18 nan nan 320 nan 300 298 323 261 185 314 317
nan nan nan nan nan nan nan nan nan nan nan nan nan nan nan nan nan nan nan nan nan nan nan nan nan 314 nan 114 217 200 171 46 360 9 nan nan 332 nan 315 299 308 312 4 291 316
nan nan nan nan nan nan nan nan nan nan nan nan nan nan nan nan nan nan nan nan nan nan nan nan nan nan 341 325 215 nan 162 94 354 354 19 20 nan nan 347 342 339 331 317 0 354
nan nan nan nan nan nan nan nan nan nan nan nan nan nan nan nan nan nan nan nan nan nan nan nan nan nan 229 230 nan nan nan 117 2 351 22 nan nan nan 28 14 27 14 359 20 356
nan nan nan nan nan nan nan nan nan nan nan nan nan nan nan nan nan nan nan nan nan nan nan nan nan 204 293 nan nan nan nan 75 330 351 19 306 nan nan nan nan 304 342 38 331 nan
nan nan nan nan nan nan nan nan nan nan nan nan nan nan nan nan nan nan nan nan nan nan nan nan nan nan 298 nan nan nan nan 80 302 15 217 331 nan nan 17 44 30 357 36 24 9
nan nan nan nan nan nan nan nan nan nan nan nan nan nan nan nan nan nan nan nan nan nan nan nan nan nan 325 10 20 6 24 331 308 336 24 51 339 3 30 25 31 28 27 336 185
nan nan nan nan nan nan nan nan nan nan nan nan nan nan nan nan nan nan nan nan nan nan nan nan nan 41 nan nan nan 222 166 187 322 305 109 109 340 18 14 38 30 24 17 340 39
nan nan nan nan nan nan nan nan nan nan nan nan nan nan nan nan nan nan nan nan nan nan nan nan 311 nan nan nan nan 261 68 114 0 320 246 151 182 23 11 44 68 175 300 18 23
nan nan nan nan nan nan nan nan nan nan nan nan nan nan nan nan nan nan nan nan nan nan nan nan nan nan nan nan 283 nan nan 95 216 240 nan 95 116 46 21 35 54 25 49 286 342
nan nan nan nan nan nan nan nan nan nan nan nan nan nan nan nan nan nan nan nan nan nan nan nan nan nan nan nan 293 276 57 174 326 244 nan nan 137 80 nan 15 41 27 336 348 16
nan nan nan nan nan nan nan nan nan nan nan nan nan nan nan nan nan nan nan nan nan nan nan nan nan nan nan nan 314 253 nan nan nan nan nan 30 nan 62 46 7 345 7 51 341 4
nan nan nan nan nan nan nan nan nan nan nan nan nan nan nan nan nan nan nan nan nan nan nan nan nan nan nan nan 307 233 nan nan 272 nan nan nan 87 nan 352 356 333 342 3 36 349
nan nan nan nan nan nan nan nan nan nan nan nan nan nan nan nan nan nan nan nan nan nan nan nan 192 nan nan nan nan 301 nan nan nan nan nan 125 302 nan 356 345 348 336 343 20 309
nan nan nan nan nan nan nan nan nan nan nan nan nan nan nan nan nan nan nan nan nan nan nan nan nan nan 231 222 220 277 284 328 nan nan nan 146 275 327 339 344 331 320 329 321 323
nan nan nan nan nan nan nan nan nan nan nan nan nan nan nan nan nan nan nan nan nan nan nan nan nan nan nan 8 nan nan nan nan 83 282 nan nan 159 nan nan nan 311 nan 321 307 312
nan nan nan nan nan nan nan nan nan nan nan nan nan nan nan nan nan nan nan nan nan nan nan nan nan nan nan nan nan nan 192 nan nan nan nan 199 252 nan nan 319 312 321 301 306 313
nan nan nan nan nan nan nan nan nan nan nan nan nan nan nan nan nan nan nan nan nan nan nan nan nan nan nan nan 166 310 33 239 nan nan nan nan nan 321 324 320 319 295 301 302 302
nan nan nan nan nan nan nan nan nan nan nan nan nan nan nan nan nan nan nan nan nan nan nan nan nan nan nan nan 133 193 189 nan 274 nan nan nan nan nan 315 319 290 296 300 303 302
nan nan nan nan nan nan nan nan nan nan nan nan nan nan nan nan nan nan nan nan nan nan nan nan nan nan nan nan 233 nan 173 153 287 292 nan nan 165 nan 309 280 285 293 300 308 314
nan nan nan nan nan nan nan nan nan nan nan nan nan nan nan nan nan nan nan nan nan nan nan nan nan nan nan nan nan nan nan 145 126 nan nan nan nan nan 289 285 294 304 305 305 320